Location: Krasnoyarskiy Pitomnik
(51.1333°N, 71.6167°E)
Time: 10:24:55
(UTC+00:00)

Cosmos 2360 Rocket - Pass Details

Date: 22 October 2021
Orbit: 832 x 846 km, 71.0° (Epoch: 07 December)

Event Time Altitude Azimuth Distance (km) Brightness Sun altitude
Exits shadow 22:32:09 16° 345° (NNW) 2,087 4.3 -31.3°
Maximum altitude 22:36:18 40° 48° (NE) 1,238 3.4 -30.7°
Drops below altitude 10° 22:41:37 10° 118° (ESE) 2,468 5.1 -29.9°
Sets 22:44:13 0° 126° (SE) 3,399 5.8 -29.5°
